GW3950 Weather Reports


time (UTC)temp
C
wind
direction
speed
KPH
gust
KPH
rain 1hr
cm
rain 24hr
cm
rain mn
cm
humidity
%
barometer
mb
20260506133012 10 307 9.7 17.7 0.00 0.00 0.00 86 1013.0
20260506131939 10 5 9.7 19.3 0.00 0.00 0.00 86 1012.1
20260506130939 10 348 11.3 19.3 0.00 0.00 0.00 86 1012.0
20260506125937 10 0 11.3 19.3 0.00 0.00 0.00 85 1012.0
20260506123722 10 9 12.9 25.7 0.00 0.00 0.00 84 1011.2
20260506122747 10 339 12.9 25.7 0.00 0.00 0.00 84 1011.4
20260506120542 11 335 12.9 20.9 0.00 0.00 0.00 82 1011.2
20260506115534 11 342 9.7 22.5 0.00 0.00 0.00 81 1011.1
20260506114515 11 339 12.9 22.5 0.00 0.00 0.00 79 1011.1
20260506113454 11 331 12.9 20.9 0.00 0.00 0.00 79 1010.8
20260506112458 12 339 11.3 20.9 0.00 0.00 0.00 79 1010.6
20260506111517 12 348 9.7 19.3 0.00 0.00 0.00 78 1010.4
20260506110519 12 308 12.9 24.1 0.00 0.00 0.00 78 1010.1
20260506105513 12 330 11.3 24.1 0.00 0.00 0.00 78 1009.8
20260506104507 12 304 11.3 25.7 0.00 0.00 0.00 78 1009.8
20260506103520 12 19 12.9 25.7 0.00 0.00 0.00 77 1009.7
20260506102518 13 341 11.3 22.5 0.00 0.00 0.00 77 1009.4
20260506101543 13 355 12.9 22.5 0.00 0.00 0.00 77 1009.3
20260506100508 13 331 9.7 19.3 0.00 0.00 0.00 77 1009.2
20260506095505 13 344 8.0 17.7 0.00 0.00 0.00 77 1008.9
20260506094449 13 355 9.7 17.7 0.00 0.00 0.00 77 1008.6
20260506093419 13 343 9.7 17.7 0.00 0.00 0.00 77 1008.6
20260506092443 13 21 6.4 14.5 0.00 0.00 0.00 77 1008.7
20260506091440 13 321 9.7 17.7 0.00 0.00 0.00 77 1008.6
20260506090502 13 19 9.7 17.7 0.00 0.00 0.00 77 1008.4
20260506085520 13 338 8.0 12.9 0.00 0.00 0.00 77 1008.3
20260506084513 13 22 9.7 17.7 0.00 0.00 0.00 77 1008.3
20260506083458 13 5 8.0 17.7 0.00 0.00 0.00 78 1008.4
20260506082428 13 338 8.0 16.1 0.00 0.00 0.00 78 1007.9
20260506081453 13 351 9.7 16.1 0.00 0.00 0.00 79 1007.9
20260506080425 13 347 6.4 16.1 0.00 0.00 0.00 80 1008.0
20260506073416 13 327 6.4 17.7 0.00 0.00 0.00 80 1008.2
20260506072410 13 0 8.0 17.7 0.00 0.00 0.00 80 1008.1
20260506070219 13 12 8.0 14.5 0.00 0.00 0.00 81 1007.8
20260506062222 15 15 9.7 17.7 0.00 0.00 0.00 79 1007.5
20260506061223 15 13 11.3 22.5 0.00 0.00 0.00 78 1007.6
20260506060219 15 346 11.3 22.5 0.00 0.00 0.00 79 1007.5
20260506051241 15 5 11.3 22.5 0.00 0.00 0.00 78 1007.6
20260506043008 16 349 11.3 20.9 0.00 0.00 0.00 76 1007.5
20260506041954 16 302 8.0 20.9 0.00 0.00 0.00 76 1007.3
20260506041010 16 323 11.3 20.9 0.00 0.00 0.00 75 1007.4
20260506040002 17 333 11.3 20.9 0.00 0.00 0.00 75 1007.5
20260506034958 17 350 12.9 24.1 0.00 0.00 0.00 74 1007.5
20260506032803 17 329 11.3 24.1 0.00 0.00 0.00 74 1006.9
20260506031813 17 344 9.7 19.3 0.00 0.00 0.00 74 1006.7
20260506030749 17 355 11.3 19.3 0.00 0.00 0.00 74 1006.5
20260506025804 18 330 11.3 24.1 0.00 0.00 0.00 75 1006.2
20260506024803 18 348 12.9 24.1 0.00 0.00 0.00 74 1005.8
20260506023756 18 0 11.3 19.3 0.00 0.00 0.00 74 1005.8
20260506022809 18 347 8.0 16.1 0.00 0.00 0.00 73 1005.6
20260506021753 18 340 6.4 14.5 0.00 0.00 0.00 72 1005.5
20260506020735 18 339 8.0 20.9 0.00 0.00 0.00 71 1005.2
20260506015709 19 355 8.0 20.9 0.00 0.00 0.00 71 1005.3
20260506014734 19 355 9.7 17.7 0.00 0.00 0.00 71 1005.2
20260506013745 19 349 9.7 16.1 0.00 0.00 0.00 71 1004.8
20260506011635 20 5 14.5 25.7 0.00 0.00 0.00 70 1004.1
20260506010600 20 337 12.9 25.7 0.00 0.00 0.00 69 1003.7
20260506005621 21 329 16.1 27.4 0.00 0.00 0.00 69 1003.6
20260506004623 21 355 12.9 27.4 0.00 0.00 0.00 68 1003.2
20260506003641 21 307 11.3 19.3 0.00 0.00 0.00 67 1003.2
20260506002628 22 323 11.3 29.0 0.00 0.00 0.00 66 1003.0
20260506000456 22 349 16.1 25.7 0.00 0.00 0.00 65 1002.9
20260505235508 23 351 12.9 24.1 0.00 0.00 0.00 65 1002.9
20260505232325 24 335 14.5 27.4 0.00 0.00 0.00 61 1002.7
20260505231329 25 342 16.1 27.4 0.00 0.00 0.00 60 1002.6
20260505225235 26 339 12.9 25.7 0.00 0.00 0.00 57 1002.2
20260505224226 26 325 12.9 25.7 0.00 0.00 0.00 57 1002.4
20260505223242 27 316 14.5 24.1 0.00 0.00 0.00 57 1002.1
20260505222230 28 318 14.5 24.1 0.00 0.00 0.00 56 1002.1
20260505221239 28 16 14.5 22.5 0.00 0.00 0.00 54 1002.0
20260505220216 30 5 11.3 22.5 0.00 0.00 0.00 53 1001.8
20260505215144 30 9 12.9 20.9 0.00 0.00 0.00 50 1001.8
20260505213016 30 311 11.3 19.3 0.00 0.00 0.00 47 1001.9
20260505210844 31 323 9.7 22.5 0.00 0.00 0.00 43 1001.9
20260505205858 31 346 11.3 19.3 0.00 0.00 0.00 44 1001.9
20260505204842 32 323 8.0 19.3 0.00 0.00 0.00 42 1001.9
20260505203857 32 277 9.7 16.1 0.00 0.00 0.00 44 1001.9
20260505202839 32 252 6.4 16.1 0.00 0.00 0.00 46 1001.9
20260505201903 31 267 6.4 16.1 0.00 0.00 0.00 47 1001.9
20260505200835 31 196 6.4 17.7 0.00 0.00 0.00 50 1001.9
20260505195820 31 293 8.0 19.3 0.00 0.00 0.00 50 1002.2
20260505194825 31 231 9.7 19.3 0.00 0.00 0.00 52 1002.3
20260505192633 31 240 11.3 24.1 0.00 0.00 0.00 53 1002.2
20260505191627 31 227 11.3 24.1 0.00 0.00 0.00 52 1002.3
20260505190557 30 194 9.7 22.5 0.00 0.00 0.00 53 1002.0
20260505185615 30 222 9.7 30.6 0.00 0.00 0.00 56 1002.0
20260505183428 29 213 12.9 25.7 0.00 0.00 0.00 59 1002.0
20260505182416 29 180 14.5 25.7 0.00 0.00 0.00 61 1002.2
20260505181437 28 200 12.9 24.1 0.00 0.00 0.00 61 1002.2
20260505180403 28 190 11.3 27.4 0.00 0.00 0.00 61 1002.3
20260505175332 28 195 12.9 32.2 0.00 0.00 0.00 61 1002.2
20260505174323 28 192 14.5 32.2 0.00 0.00 0.00 66 1002.3
20260505173334 28 209 14.5 27.4 0.00 0.00 0.00 65 1002.2
20260505171209 28 195 12.9 25.7 0.00 0.00 0.00 64 1002.5
20260505170140 28 194 12.9 24.1 0.00 0.00 0.00 65 1002.3
20260505165123 27 184 14.5 25.7 0.00 0.00 0.00 65 1002.5
20260505164126 27 207 14.5 29.0 0.00 0.00 0.00 65 1002.4
20260505163108 27 218 12.9 29.0 0.00 0.00 0.00 68 1002.3
20260505162109 26 183 12.9 24.1 0.00 0.00 0.00 71 1002.2
20260505161126 26 210 14.5 24.1 0.00 0.00 0.00 72 1002.2
20260505160151 25 202 14.5 33.8 0.00 0.00 0.00 73 1002.0
20260505153054 24 226 14.5 27.4 0.00 0.00 0.00 77 1001.7
20260505152119 23 214 17.7 30.6 0.00 0.00 0.00 78 1001.9
20260505151044 23 213 16.1 33.8 0.00 0.00 0.00 78 1001.9